Sparta, WI

5:57 PM CDT on August 27, 2016 (GMT -0500)
Sparta-Fort McCoy

Weather History for KCMY - April, 2013

Change the Weather History Date:

Tuesday, April 9, 2013

  Actual Average Record
Temperature  
Mean Temperature 38 °F -  
Max Temperature 41 °F 52 °F 76 °F (1955)
Min Temperature 33 °F 30 °F 12 °F (2016)
Degree Days  
Heating Degree Days 27    
Moisture  
Dew Point 35 °F    
Average Humidity 94    
Maximum Humidity 100    
Minimum Humidity 87    
Precipitation  
Precipitation 1.07 in - - ()
Sea Level Pressure  
Sea Level Pressure 30.00 in    
Wind  
Wind Speed 7 mph (NE)    
Max Wind Speed 20 mph    
Max Gust Speed 31 mph    
Visibility 7 miles    
Events Rain , Snow , Thunderstorm    
Averages and records for this station are not official NWS values.
T = Trace of Precipitation, MM = Missing Value Source: NWS Daily Summary

Daily Weather History Graph

Daily Weather History Graph

Search for Another Location

Airport or City:

Trip Planner

Search our weather history database for the weather conditions in past years. The results will help you decide how hot, cold, wet, or windy it might be!

Date:

Astronomy

Apr. 09, 2013 Rise Set
Actual Time 6:29 AM CDT 7:39 PM CDT
Civil Twilight 6:00 AM CDT 8:09 PM CDT
Nautical Twilight 5:24 AM CDT 8:45 PM CDT
Astronomical Twilight 4:47 AM CDT 9:22 PM CDT
Moon 5:53 AM CDT (4/9) 7:16 PM CDT (4/9)
Length of Visible Light 14h 09m
Length of Day
13h 10m
Waning Crescent, 1% of the Moon is Illuminated
Apr 9
Waning Crescent
Apr 10
New
Apr 18
First Quarter
Apr 25
Full
May 2
Last Quarter

Hourly Weather History & Observations

Time (CDT) Temp. Windchill Dew Point Humidity Pressure Visibility Wind Dir Wind Speed Gust Speed Precip Events Conditions
12:15 AM 35.6 °F - 35.6 °F 100% 30.02 in 5.0 mi Calm Calm - N/A   Mostly Cloudy
12:35 AM 35.6 °F 32.8 °F 35.6 °F 100% 30.02 in 5.0 mi NE 3.5 mph - N/A   Mostly Cloudy
12:55 AM 35.6 °F 32.8 °F 35.6 °F 100% 30.02 in 7.0 mi NNE 3.5 mph - N/A   Scattered Clouds
1:15 AM 37.4 °F 34.9 °F 35.6 °F 93% 30.03 in 7.0 mi ENE 3.5 mph - N/A   Mostly Cloudy
1:35 AM 35.6 °F 31.7 °F 35.6 °F 100% 30.02 in 7.0 mi NE 4.6 mph - N/A   Overcast
1:55 AM 37.4 °F 32.1 °F 35.6 °F 93% 29.98 in 10.0 mi ENE 6.9 mph - N/A   Overcast
2:15 AM 37.4 °F 32.1 °F 35.6 °F 93% 29.99 in 10.0 mi ENE 6.9 mph - N/A   Overcast
2:35 AM 37.4 °F 32.8 °F 35.6 °F 93% 29.98 in 10.0 mi NE 5.8 mph - N/A   Overcast
2:55 AM 37.4 °F 32.8 °F 35.6 °F 93% 29.98 in 10.0 mi ENE 5.8 mph - N/A   Overcast
3:15 AM 37.4 °F 32.1 °F 35.6 °F 93% 29.99 in 10.0 mi East 6.9 mph - N/A   Overcast
3:35 AM 37.4 °F 33.8 °F 35.6 °F 93% 30.01 in 10.0 mi East 4.6 mph - N/A   Overcast
3:55 AM 37.4 °F 31.4 °F 35.6 °F 93% 30.00 in 10.0 mi East 8.1 mph - N/A   Overcast
4:15 AM 37.4 °F 31.4 °F 35.6 °F 93% 29.99 in 10.0 mi NE 8.1 mph - N/A   Overcast
4:35 AM 37.4 °F 32.1 °F 35.6 °F 93% 30.01 in 10.0 mi East 6.9 mph - N/A   Overcast
4:55 AM 37.4 °F 30.8 °F 33.8 °F 87% 29.98 in 10.0 mi ENE 9.2 mph 16.1 mph N/A   Overcast
5:15 AM 37.4 °F 31.4 °F 33.8 °F 87% 29.99 in 10.0 mi East 8.1 mph - N/A   Overcast
5:35 AM 37.4 °F 31.4 °F 33.8 °F 87% 29.99 in 10.0 mi ENE 8.1 mph - N/A   Overcast
5:55 AM 35.6 °F 29.9 °F 33.8 °F 93% 30.01 in 10.0 mi ENE 6.9 mph - N/A   Overcast
6:15 AM 35.6 °F 30.7 °F 33.8 °F 93% 30.01 in 10.0 mi ENE 5.8 mph - N/A   Overcast
6:35 AM 35.6 °F 31.7 °F 33.8 °F 93% 30.00 in 10.0 mi NE 4.6 mph - N/A   Overcast
6:55 AM 35.6 °F 30.7 °F 33.8 °F 93% 29.99 in 10.0 mi NE 5.8 mph - N/A   Overcast
7:15 AM 35.6 °F 30.7 °F 33.8 °F 93% 29.99 in 10.0 mi ENE 5.8 mph - N/A   Light Drizzle
7:35 AM 35.6 °F 28.0 °F 33.8 °F 93% 29.98 in 5.0 mi ENE 10.4 mph - N/A Rain Rain
7:55 AM 35.6 °F 32.8 °F 33.8 °F 93% 30.00 in 2.5 mi NE 3.5 mph 9.2 mph 0.06 in Rain Rain
8:15 AM 35.6 °F 28.6 °F 33.8 °F 93% 29.98 in 2.5 mi NE 9.2 mph - 0.03 in Rain Rain
8:35 AM 35.6 °F 28.0 °F 35.6 °F 100% 29.97 in 7.0 mi NE 10.4 mph - 0.04 in Rain Light Rain
8:55 AM 35.6 °F 27.5 °F 33.8 °F 93% 29.95 in 10.0 mi ENE 11.5 mph - 0.04 in Rain Light Rain
9:15 AM 35.6 °F 29.2 °F 35.6 °F 100% 29.95 in 10.0 mi NE 8.1 mph - N/A   Overcast
9:35 AM 35.6 °F 28.6 °F 33.8 °F 93% 29.95 in 5.0 mi ENE 9.2 mph - 0.01 in Rain Light Rain
9:55 AM 35.6 °F 28.6 °F 33.8 °F 93% 29.95 in 5.0 mi ENE 9.2 mph - 0.02 in Rain Light Rain
10:15 AM 35.6 °F 28.6 °F 33.8 °F 93% 29.95 in 7.0 mi ENE 9.2 mph 18.4 mph N/A   Drizzle
10:35 AM 35.6 °F 27.5 °F 33.8 °F 93% 29.95 in 5.0 mi ENE 11.5 mph 17.3 mph 0.01 in Rain Light Rain
10:55 AM 35.6 °F 29.2 °F 35.6 °F 100% 29.96 in 2.5 mi NE 8.1 mph - 0.05 in Rain , Thunderstorm Rain
11:15 AM 35.6 °F 29.2 °F 35.6 °F 100% 29.97 in 1.5 mi NNE 8.1 mph - 0.10 in Rain , Thunderstorm Rain
11:35 AM 35.6 °F 29.9 °F 35.6 °F 100% 29.99 in 1.5 mi NNW 6.9 mph - 0.22 in Rain Rain
11:55 AM 35.6 °F 31.7 °F 35.6 °F 100% 30.04 in 1.2 mi NNW 4.6 mph - 0.34 in Snow , Thunderstorm Light Thunderstorms and Snow
12:15 PM 35.6 °F 28.6 °F 35.6 °F 100% 30.01 in 1.2 mi NNE 9.2 mph - 0.12 in Snow Light Snow
12:35 PM 35.6 °F 25.2 °F 35.6 °F 100% 29.86 in 2.5 mi East 18.4 mph 31.1 mph 0.17 in Rain Light Rain
12:55 PM 37.4 °F 30.8 °F 35.6 °F 93% 29.95 in 10.0 mi NE 9.2 mph - 0.18 in   Overcast
1:15 PM 37.4 °F 28.9 °F 35.6 °F 93% 29.98 in 10.0 mi NE 13.8 mph 20.7 mph N/A   Overcast
1:35 PM 37.4 °F 30.8 °F 35.6 °F 93% 29.98 in 10.0 mi NNE 9.2 mph 16.1 mph N/A Rain Rain
1:55 PM 37.4 °F 30.8 °F 35.6 °F 93% 29.98 in 10.0 mi NE 9.2 mph 18.4 mph 0.01 in Rain Rain
2:15 PM 37.4 °F 31.4 °F 35.6 °F 93% 29.98 in 10.0 mi NE 8.1 mph - N/A   Light Drizzle
2:35 PM 37.4 °F 29.8 °F 37.4 °F 100% 29.98 in 10.0 mi NE 11.5 mph 18.4 mph N/A   Light Drizzle
2:55 PM 37.4 °F 29.3 °F 37.4 °F 100% 29.98 in 10.0 mi NE 12.7 mph 18.4 mph N/A Rain Light Rain
3:15 PM 39.2 °F 31.6 °F 37.4 °F 93% 29.98 in 10.0 mi NE 12.7 mph 18.4 mph N/A   Overcast
3:35 PM 39.2 °F 32.5 °F 37.4 °F 93% 29.98 in 7.0 mi NE 10.4 mph 17.3 mph N/A   Overcast
3:55 PM 39.2 °F 32.0 °F 37.4 °F 93% 29.99 in 7.0 mi ENE 11.5 mph - N/A   Overcast
4:15 PM 41.0 °F 35.2 °F 37.4 °F 87% 29.98 in 4.0 mi NE 9.2 mph - N/A   Overcast
4:35 PM 41.0 °F 35.8 °F 37.4 °F 87% 29.99 in 7.0 mi NE 8.1 mph 17.3 mph N/A   Overcast
4:55 PM 41.0 °F 36.4 °F 37.4 °F 87% 30.00 in 5.0 mi ENE 6.9 mph 17.3 mph N/A   Overcast
5:15 PM 39.2 °F 34.2 °F 37.4 °F 93% 30.02 in 4.0 mi NE 6.9 mph - N/A   Overcast
5:35 PM 39.2 °F 32.0 °F 37.4 °F 93% 30.02 in 3.0 mi ENE 11.5 mph - N/A   Overcast
5:55 PM 39.2 °F 33.0 °F 37.4 °F 93% 30.03 in 3.0 mi NE 9.2 mph - N/A   Overcast
6:15 PM 39.2 °F 32.0 °F 37.4 °F 93% 30.03 in 4.0 mi NE 11.5 mph - N/A   Overcast
6:35 PM 39.2 °F 32.0 °F 37.4 °F 93% 30.04 in 5.0 mi ENE 11.5 mph 20.7 mph N/A   Overcast
6:55 PM 39.2 °F 33.0 °F 37.4 °F 93% 30.05 in 7.0 mi ENE 9.2 mph 18.4 mph N/A   Overcast
7:15 PM 37.4 °F 30.3 °F 37.4 °F 100% 30.05 in 5.0 mi NE 10.4 mph - N/A   Overcast
7:35 PM 37.4 °F 30.3 °F 37.4 °F 100% 30.04 in 10.0 mi NE 10.4 mph 17.3 mph N/A   Overcast
7:55 PM 37.4 °F 29.3 °F 37.4 °F 100% 30.04 in 10.0 mi NE 12.7 mph - N/A   Overcast
8:15 PM 37.4 °F 31.4 °F 37.4 °F 100% 30.04 in 7.0 mi NE 8.1 mph 17.3 mph N/A   Overcast
8:35 PM 37.4 °F 28.5 °F 35.6 °F 93% 30.03 in 7.0 mi NE 15.0 mph 21.9 mph N/A Thunderstorm Overcast
8:55 PM 37.4 °F 28.9 °F 35.6 °F 93% 30.02 in 10.0 mi ENE 13.8 mph 21.9 mph N/A Rain Light Rain
9:15 PM 37.4 °F 28.5 °F 35.6 °F 93% 30.02 in 10.0 mi ENE 15.0 mph 20.7 mph 0.01 in Rain Light Rain
9:55 PM 37.4 °F 30.8 °F 35.6 °F 93% 30.08 in 10.0 mi NE 9.2 mph 18.4 mph 0.01 in Rain , Thunderstorm Light Thunderstorms and Rain
10:15 PM 35.6 °F 27.5 °F 35.6 °F 100% 30.04 in 2.0 mi East 11.5 mph 19.6 mph 0.20 in Rain , Thunderstorm Light Thunderstorms and Rain
10:35 PM 35.6 °F 27.5 °F 33.8 °F 93% 29.99 in 7.0 mi East 11.5 mph 25.3 mph 0.22 in Rain , Thunderstorm Light Thunderstorms and Rain
10:55 PM 35.6 °F 26.6 °F 32.0 °F 87% 30.06 in 7.0 mi NE 13.8 mph 19.6 mph 0.23 in Rain , Thunderstorm Rain
11:15 PM 35.6 °F 24.8 °F 32.0 °F 87% 30.04 in 5.0 mi ENE 19.6 mph - 0.07 in Snow , Thunderstorm Light Thunderstorms and Snow
11:35 PM 33.8 °F 22.8 °F 32.0 °F 93% 30.07 in 4.0 mi East 18.4 mph 25.3 mph 0.13 in Rain Light Rain